Flight Track Log - Related Links

Times and Time Zones

All times are in EDT time to prevent confusion due to time zone crossing. See the EJA951 flight status page for this flight to view local times or setup timezone preferences in your user account.

Time Position Orientation Groundspeed Altitude Reporting Facility
EDT Latitude Longitude Course Direction KTS MPH feet Rate Location/Type
Thu 09:04:52 AM 33.6167 -111.9167 284° West 179 206 2,300  Level Phoenix TRACON
Thu 09:06:12 AM 33.6325 -111.9950 284° West 225 259 5,400 2,255 Climbing Albuquerque Center
Thu 09:07:13 AM 33.6889 -111.9800 12° North 229 264 7,600 2,459 Climbing Albuquerque Center
Thu 09:08:14 AM 33.7611 -111.9294 30° Northeast 254 292 10,400 2,361 Climbing Albuquerque Center
Thu 09:09:15 AM 33.8414 -111.8736 30° Northeast 332 382 12,400 1,934 Climbing Albuquerque Center
Thu 09:10:15 AM 33.9297 -111.8131 30° Northeast 366 421 14,300 1,983 Climbing Albuquerque Center
Thu 09:11:16 AM 34.0156 -111.7531 30° Northeast 386 444 16,400 2,115 Climbing Albuquerque Center
Thu 09:12:17 AM 34.1183 -111.7022 22° Northeast 404 465 18,600 2,016 Climbing Albuquerque Center
Thu 09:13:18 AM 34.2283 -111.6592 18° North 415 478 20,500 1,918 Climbing Albuquerque Center
Thu 09:14:19 AM 34.3322 -111.5786 33° Northeast 447 514 22,500 2,066 Climbing Albuquerque Center
Thu 09:15:20 AM 34.4389 -111.4422 47° Northeast 462 532 24,700 2,066 Climbing Albuquerque Center
Thu 09:16:21 AM 34.5333 -111.3231 46° Northeast 481 554 26,700 1,967 Climbing Albuquerque Center
Thu 09:17:22 AM 34.6292 -111.1992 47° Northeast 496 571 28,700 1,869 Climbing Albuquerque Center
Thu 09:18:23 AM 34.7289 -111.0717 46° Northeast 512 589 30,500 2,066 Climbing Albuquerque Center
Thu 09:19:24 AM 34.8281 -110.9433 47° Northeast 520 598 32,900 1,918 Climbing Albuquerque Center
Thu 09:20:25 AM 34.9306 -110.8117 46° Northeast 531 611 34,400 1,033 Climbing Albuquerque Center
Thu 09:21:26 AM 35.0372 -110.6725 47° Northeast 547 629 35,000 295 Climbing Albuquerque Center
Thu 09:22:27 AM 35.1536 -110.5219 47° Northeast 547 629 35,000 393 Level Albuquerque Center
Thu 09:23:28 AM 35.2536 -110.3903 47° Northeast 550 633 35,800 836 Climbing Albuquerque Center
Thu 09:24:29 AM 35.3564 -110.2544 47° Northeast 561 646 36,700 1,033 Climbing Albuquerque Center
Thu 09:25:30 AM 35.4781 -110.0964 47° Northeast 567 652 37,900 1,328 Climbing Albuquerque Center
Thu 09:26:31 AM 35.5806 -109.9614 47° Northeast 565 650 39,400 1,426 Climbing Albuquerque Center
Thu 09:27:32 AM 35.6797 -109.8275 48° Northeast 557 641 40,800 787 Climbing Albuquerque Center
Thu 09:28:33 AM 35.7858 -109.6633 51° Northeast 549 632 41,000 98 Climbing Albuquerque Center
Thu 09:29:34 AM 35.8753 -109.5189 53° Northeast 551 634 41,000  Level Albuquerque Center
Thu 09:30:35 AM 35.9658 -109.3742 52° Northeast 553 636 41,000  Level Albuquerque Center
Thu 09:31:36 AM 36.0719 -109.2033 52° Northeast 557 641 41,000  Level Albuquerque Center
Thu 09:32:37 AM 36.1592 -109.0658 52° Northeast 559 643 41,000  Level Albuquerque Center
Thu 09:33:38 AM 36.2550 -108.9097 53° Northeast 551 634 41,000  Level Albuquerque Center
Thu 09:34:39 AM 36.3453 -108.7644 52° Northeast 549 632 41,000  Level Albuquerque Center
Thu 09:35:40 AM 36.4469 -108.5969 53° Northeast 543 625 41,000  Level Albuquerque Center
Thu 09:36:57 AM 36.5631 -108.4053 53° Northeast 542 624 41,000  Level Denver Center
Thu 09:38:01 AM 36.6497 -108.2633 53° Northeast 542 624 41,000  Level Denver Center
Thu 09:39:02 AM 36.7525 -108.0986 52° Northeast 539 620 41,000  Level Denver Center
Thu 09:40:03 AM 36.8558 -107.9792 43° Northeast 534 615 41,000  Level Denver Center
Thu 09:41:04 AM 36.9600 -107.8589 43° Northeast 533 613 41,000  Level Denver Center
Thu 09:42:03 AM 37.0808 -107.7194 43° Northeast 532 612 41,000  Level Denver Center
Thu 09:43:06 AM 37.1850 -107.6017 42° Northeast 530 610 41,000  Level Denver Center
Thu 09:44:06 AM 37.2878 -107.4817 43° Northeast 528 608 41,000  Level Denver Center
Thu 09:45:09 AM 37.4089 -107.3436 42° Northeast 528 608 41,000  Level Denver Center
Thu 09:46:11 AM 37.5111 -107.2222 43° Northeast 528 608 41,000  Level Denver Center
Thu 09:47:12 AM 37.6317 -107.0828 42° Northeast 528 608 41,000  Level Denver Center
Thu 09:48:13 AM 37.7347 -106.9606 43° Northeast 528 608 41,000  Level Denver Center
Thu 09:49:13 AM 37.8361 -106.8378 44° Northeast 528 608 41,000  Level Denver Center
Thu 09:50:16 AM 37.9567 -106.6944 43° Northeast 528 608 41,000 -145 Level Denver Center
Thu 09:51:17 AM 38.0597 -106.5719 43° Northeast 529 609 40,700 -950 Descending Denver Center
Thu 09:52:16 AM 38.1561 -106.4575 43° Northeast 529 609 39,100 -2,281 Descending Denver Center
Thu 09:53:18 AM 38.2853 -106.3025 43° Northeast 532 612 36,100 -2,683 Descending Denver Center
Thu 09:54:19 AM 38.3903 -106.1739 44° Northeast 529 609 33,600 -2,410 Descending Denver Center
Thu 09:55:20 AM 38.4958 -106.0464 43° Northeast 515 593 31,200 -2,311 Descending Denver Center
Thu 09:56:21 AM 38.5956 -105.9236 44° Northeast 514 592 28,900 -2,419 Descending Denver Center
Thu 09:57:24 AM 38.7117 -105.7839 43° Northeast 515 593 26,200 -2,390 Descending Denver Center
Thu 09:58:24 AM 38.8042 -105.6694 44° Northeast 492 566 24,000 -2,083 Descending Denver Center
Thu 09:59:25 AM 38.8911 -105.5622 44° Northeast 461 531 22,000 -1,920 Descending Denver Center
Thu 10:00:29 AM 38.9756 -105.4581 44° Northeast 438 504 20,000 -1,935 Descending Denver Center
Thu 10:01:29 AM 39.0581 -105.3556 44° Northeast 420 483 18,000 -1,967 Descending Denver Center
Thu 10:02:31 AM 39.1442 -105.2514 43° Northeast 375 432 16,000 -1,512 Descending Denver Center
Thu 10:03:32 AM 39.2164 -105.1861 35° Northeast 314 361 14,900 -1,366 Descending Denver Center
Thu 10:04:34 AM 39.2808 -105.1217 38° Northeast 293 337 13,200 -1,415 Descending Denver Center
Thu 10:05:35 AM 39.3511 -105.0583 35° Northeast 289 333 12,000 -1,033 Descending Denver Center
Thu 10:06:36 AM 39.4125 -105.0206 25° Northeast 247 284 11,100 -1,024 Descending Denver Center
Thu 10:07:38 AM 39.4850 -105.0050 North 262 302 9,900 -1,190 Descending Denver Center
Thu 10:08:37 AM 39.5558 -104.9928 North 237 273 8,700 -976 Descending Denver Center
Thu 10:09:41 AM 39.6161 -104.9792 10° North 223 257 7,900 -384 Descending Denver Center
Thu 10:10:42 AM 39.6633 -104.9414 32° Northeast 218 251 7,900 -341 Level Denver Center
Thu 10:11:44 AM 39.6625 -104.8608 91° East 218 251 7,200 -744 Descending Denver Center
Thu 10:12:43 AM 39.6197 -104.8531 172° South 155 178 6,400 -677 Descending Denver Center
Thu 10:13:48 AM 39.5819 -104.8519 179° South 139 160 5,800 -554 Descending Denver Center

Login

Don't have an account? Register now (free) for customized features, flight alerts, and more!